[Iaude] MPEC K26: 2024 KA [a=1.53,e=0.37,i=34.9,H=25.2]
    mpec at cfa.harvard.edu 
    mpec at cfa.harvard.edu
       
    Sun May 19 02:07:41 EDT 2024
    
    
  
M.P.E.C. 2024-K26                                  Issued 2024 May 19, 06:06 UT
     The Minor Planet Electronic Circulars contain information on unusual
         minor planets, routine data on comets and natural satellites,
         and occasional editorial announcements.  They are published
    on behalf of Division F of the International Astronomical Union by the
          Minor Planet Center, Smithsonian Astrophysical Observatory,
                          Cambridge, MA 02138, U.S.A.
			  
             Prepared using the Tamkin Foundation Computer Network
                              MPC at CFA.HARVARD.EDU
            URL https://www.minorplanetcenter.net/    ISSN 1523-6714
                                    2024 KA                                     
Observations:
     K24K00A*1C2024 05 17.42324017 33 32.760+12 29 39.80         20.20GVEK026G96
     K24K00A 1C2024 05 17.42837617 33 29.300+12 32 07.40         20.43GVEK026G96
     K24K00A 1C2024 05 17.43865417 33 22.510+12 37 01.30               VEK026G96
     K24K00A KC2024 05 17.45909417 33 09.036+12 46 47.03         20.50GVEK026I52
     K24K00A KC2024 05 17.45974517 33 08.586+12 47 05.68         20.45GVEK026I52
     K24K00A KC2024 05 17.46040517 33 08.168+12 47 24.61         20.20GVEK026I52
     K24K00A 1C2024 05 18.35369 17 25 05.006+18 59 30.52         20.3 GVEK026G96
     K24K00A 1C2024 05 18.35564 17 25 03.953+19 00 12.60         20.2 GVEK026G96
     K24K00A  C2024 05 18.40818617 24 34.826+19 19 02.34         20.8 GVEK026H01
     K24K00A  C2024 05 18.41406517 24 31.659+19 21 07.80         20.9 GVEK026H01
     K24K00A  C2024 05 18.42163317 24 27.587+19 23 48.99         20.6 GVEK026H01
     K24K00A  C2024 05 18.42986117 24 23.185+19 26 43.56         20.6 GVEK026H01
     K24K00A KC2024 05 19.21947517 18 36.899+23 36 40.47         21.0 GVEK026H01
     K24K00A KC2024 05 19.22708117 18 33.525+23 38 50.64         21.7 GVEK026H01
     K24K00A KC2024 05 19.24116517 18 27.198+23 42 50.72         21.1 GVEK026H01
     K24K00A KC2024 05 19.24769717 18 24.266+23 44 41.77         21.1 GVEK026H01
Observer details:
G96 Mt. Lemmon Survey.  Observers V. F. Carvajal, D. Rankin.  Measurers T.
    Beuden, V. F. Carvajal, D. Fay, J. B. Fazekas, D. C. Fuls, A. R. Gibbs, A.
    D. Grauer, H. Groeller, J. K. Hogan, R. A. Kowalski, S. M. Larson, G. J.
    Leonard, D. Rankin, R. L. Seaman, F. C. Shelly, K. W. Wierzchos, D.
    Parrott.  1.5-m reflector + 10K CCD, 1.50-m f/1.6 1.5-m reflector + CCD.
H01 Magdalena Ridge Observatory, Socorro.  Observers W. H. Ryan, E. V. Ryan.
    Measurer W. H. Ryan.  2.4-m f/8.9 Ritchey-Chretien + CCD.
I52 Steward Observatory, Mt. Lemmon Station.  Observer J. K. Hogan.  Measurers
    T. Beuden, V. F. Carvajal, D. Fay, J. B. Fazekas, D. C. Fuls, A. R. Gibbs,
    A. D. Grauer, H. Groeller, J. K. Hogan, R. A. Kowalski, S. M. Larson, G.
    J. Leonard, D. Rankin, R. L. Seaman, F. C. Shelly, K. W. Wierzchos.  1.0-m
    prime focus + CCD.
Orbital elements:
2024 KA                                                  Earth MOID = 0.0276 AU
Epoch 2024 Mar. 31.0 TT = JDT 2460400.5                 MPC                     
M 356.54852              (2000.0)            P               Q                  
n   0.52124689     Peri.  316.07151     -0.87834564     +0.08934887             
a   1.5291159      Node   235.20769     -0.08688732     -0.99585323             
e   0.3712174      Incl.   34.87794     -0.47006332     +0.01712073             
P   1.89           H   25.20          G   0.15           U   8                  
Residuals in seconds of arc
240517 G96  0.1+  0.0     240518 G96  0.0   0.4+    240519 H01  0.2-  0.1+
240517 G96  0.5-  0.3-    240518 G96  0.1+  0.1+    240519 H01  0.2+  0.0
240517 G96  0.0   1.7-    240518 H01  0.0   0.2-    240519 H01  0.1-  0.1-
240517 I52  0.1+  0.0     240518 H01  0.0   0.1-    240519 H01  0.0   0.0
240517 I52  0.2-  0.1+    240518 H01  0.0   0.1-
240517 I52  0.0   0.3+    240518 H01  0.0   0.1-
Ephemeris:
2024 KA                  a,e,i = 1.53, 0.37, 35                  q = 0.9615
Date    TT    R. A. (2000) Decl.     Delta      r    Elong.  Phase     V
2024 04 19    03 45 25.2 -60 08 49   0.2790  0.9705    75.0    88.8    25.5
...
2024 05 04    02 36 24.8 -68 39 02   0.1199  1.0042    84.6    88.6    23.7
...
2024 05 12    19 48 26.1 -59 21 54   0.04445 1.0309   116.6    61.2    20.7
...
2024 05 18    17 28 06.2 +16 44 28   0.05931 1.0542   135.0    42.7    20.8
2024 05 19    17 20 04.6 +22 33 12   0.06850 1.0584   131.6    45.6    21.2
2024 05 20    17 13 30.2 +26 55 09   0.07828 1.0626   128.7    48.0    21.6
...
2024 05 26    16 50 16.5 +39 13 03   0.1421  1.0890   119.0    54.4    23.1
...
2024 06 03    16 36 37.2 +43 56 09   0.2307  1.1272   113.7    55.5    24.3
...
2024 06 18    16 27 29.1 +45 06 56   0.3952  1.2050   109.1    52.8    25.5
A. U. Tomatic                (C) Copyright 2024 MPC           M.P.E.C. 2024-K26
    
    
More information about the Iaude
mailing list